Flag for Canada Weather past 2 weeks in Lloydminster, Alberta, Canada

Now
19 °F

Passing clouds.


Feels Like: 11 °F
Forecast: 23 / 32 °F
Wind: 6 mph from East

Location: Lloydminister


UV Index: 0 (Low)

Visibility: 9 mi


Pressure: 30.17 "Hg

Humidity: 93%

Dew point: 18 °F

Location of LloydminsterLocation

Historic Weather in Lloydminster

°F

Lloydminster temperature yesterday

Maximum temperature yesterday: 36 °F (at 12:00 AM)
Minimum temperature yesterday: 21 °F (at 11:59 PM)
Average temperature yesterday: 28 °F

Past Weeks' High & Low Weather Summary

 TemperatureHumidityPressure
High64 °F (Apr 8, 3:00 PM)100% (Apr 2, 8:00 AM)30.48 "Hg (Apr 2, 8:00 AM)
Low7 °F (Apr 1, 1:00 AM)26% (Apr 8, 3:00 PM)29.50 "Hg (Apr 8, 11:00 PM)
Average32 °F68%29.96 "Hg
* Reported Apr 1 1:00 AM — Apr 16 1:00 AM, Lloydminster, Weather by CustomWeather, © 2014

Note: Actual official high and low records may vary slightly from our data, if they occured in-between our weather recording intervals... More about our weather records

Advertising

Historic Weather Conditions — Data for Previous 24 hours

 ConditionsComfort  
Time TempWeatherWind HumidityBarometerVisibility
1:00 AM
Apr 16
19 °FIce fog.5 mph100%30.16 "Hg3 mi
12:00 AM21 °FLight snow. Partly cloudy.6 mph100%30.14 "Hg7 mi
11:59 PM
Apr 15
21 °FLight snow. Partly cloudy.6 mph100%30.14 "Hg6 mi
11:00 PM25 °FLight snow. Overcast.7 mph93%30.12 "Hg7 mi
10:55 PM25 °FLight snow. Overcast.7 mph93%30.12 "Hg6 mi
10:00 PM25 °FLight snow. Overcast.9 mph86%30.11 "Hg6 mi
9:00 PM25 °FSnow flurries. Overcast.13 mph86%30.09 "Hg5 mi
8:00 PM27 °FSnow flurries. Overcast.14 mph80%30.05 "Hg4 mi
7:00 PM27 °FSnow flurries. More clouds than sun.15 mph86%30.03 "Hg4 mi
5:00 PM30 °FSnow flurries. Overcast.10 mph75%29.98 "Hg2 mi
4:00 PM30 °FOvercast.14 mph69%29.96 "Hg15 mi
3:00 PM30 °FOvercast.14 mph69%29.93 "Hg15 mi
2:00 PM30 °FOvercast.15 mph75%29.90 "Hg15 mi
1:00 PM28 °FOvercast.14 mph80%29.88 "Hg12 mi
12:00 PM28 °FOvercast.15 mph80%29.87 "Hg15 mi
11:00 AM28 °FOvercast.16 mph80%29.85 "Hg15 mi
10:00 AM28 °FLight snow. Mostly cloudy.14 mph86%29.81 "Hg5 mi
9:47 AM27 °FLight snow. Mostly cloudy.16 mph93%29.81 "Hg5 mi
9:00 AM27 °FLight snow. Low clouds.15 mph86%29.80 "Hg1 mi
8:00 AM28 °FMostly cloudy.15 mph64%29.79 "Hg15 mi
7:00 AM27 °FPartly cloudy.8 mph74%29.77 "Hg15 mi
6:00 AM27 °FPassing clouds.13 mph69%29.76 "Hg9 mi
5:00 AM28 °FPassing clouds.13 mph64%29.76 "Hg9 mi
4:00 AM28 °FPassing clouds.13 mph69%29.75 "Hg9 mi
3:00 AM30 °FPassing clouds.12 mph64%29.76 "Hg9 mi
2:00 AM32 °FPassing clouds.7 mph55%29.77 "Hg9 mi
Weather by CustomWeather, © 2014

See weather overview